Time,TemperatureF,DewpointF,PressureIn,WindDirection,WindDirectionDegrees,WindSpeedMPH,WindSpeedGustMPH,Humidity,HourlyPrecipIn,Conditions,Clouds,dailyrainin,SoftwareType,DateUTC
2013-03-16 00:00:00,53.2,43.3,30.01,NNW,338,0.0,0.0,69,0.00,,---,0.00,VWS V14.00,2013-03-16 04:00:00,
2013-03-16 00:05:00,53.2,43.3,30.01,NNW,338,0.0,0.0,69,0.00,,---,0.00,VWS V14.00,2013-03-16 04:05:00,
2013-03-16 00:10:00,53.0,43.1,30.01,NNW,338,0.0,0.0,69,0.00,,---,0.00,VWS V14.00,2013-03-16 04:10:00,
2013-03-16 00:15:00,52.8,42.9,30.01,NNW,338,0.0,0.0,69,0.00,,---,0.00,VWS V14.00,2013-03-16 04:15:00,
2013-03-16 00:20:00,52.8,43.3,30.01,NNW,338,0.0,0.0,70,0.00,,---,0.00,VWS V14.00,2013-03-16 04:20:00,
2013-03-16 00:25:00,52.7,43.2,30.01,NNW,338,0.0,0.0,70,0.00,,---,0.00,VWS V14.00,2013-03-16 04:25:00,
2013-03-16 00:30:00,52.5,43.0,30.01,NNW,338,0.0,0.0,70,0.00,,---,0.00,VWS V14.00,2013-03-16 04:30:00,
2013-03-16 00:35:00,52.5,43.0,30.00,NNW,338,0.0,0.0,70,0.00,,---,0.00,VWS V14.00,2013-03-16 04:35:00,
2013-03-16 00:40:00,52.3,43.2,30.01,NNW,338,0.0,0.0,71,0.00,,---,0.00,VWS V14.00,2013-03-16 04:40:00,
2013-03-16 00:45:00,52.3,43.2,30.01,NNW,338,0.0,0.0,71,0.00,,---,0.00,VWS V14.00,2013-03-16 04:45:00,
2013-03-16 00:50:00,52.1,43.0,30.01,NNW,338,0.0,0.0,71,0.00,,---,0.00,VWS V14.00,2013-03-16 04:50:00,
2013-03-16 00:55:00,51.9,42.8,30.00,NNW,338,0.0,0.0,71,0.00,,---,0.00,VWS V14.00,2013-03-16 04:55:00,
2013-03-16 01:00:00,51.8,43.1,30.01,NNW,338,0.0,0.0,72,0.00,,---,0.00,VWS V14.00,2013-03-16 05:00:00,
2013-03-16 01:05:00,51.6,42.9,30.01,NNW,338,0.0,0.0,72,0.00,,---,0.00,VWS V14.00,2013-03-16 05:05:00,
2013-03-16 01:10:00,51.6,42.9,30.01,NW,315,0.0,0.0,72,0.00,,---,0.00,VWS V14.00,2013-03-16 05:10:00,
2013-03-16 01:15:00,51.6,42.9,30.00,NW,315,0.0,0.0,72,0.00,,---,0.00,VWS V14.00,2013-03-16 05:15:00,
2013-03-16 01:20:00,51.6,43.2,30.00,NW,315,0.0,0.0,73,0.00,,---,0.00,VWS V14.00,2013-03-16 05:20:00,
2013-03-16 01:25:00,51.4,43.0,30.00,NW,315,0.0,0.0,73,0.00,,---,0.00,VWS V14.00,2013-03-16 05:25:00,
2013-03-16 01:30:00,51.2,42.9,30.00,NW,315,0.0,0.0,73,0.00,,---,0.00,VWS V14.00,2013-03-16 05:30:00,
2013-03-16 01:35:00,51.0,42.7,30.00,NW,315,0.0,0.0,73,0.00,,---,0.00,VWS V14.00,2013-03-16 05:35:00,
2013-03-16 01:40:00,50.9,42.9,30.00,NW,315,0.0,0.0,74,0.00,,---,0.00,VWS V14.00,2013-03-16 05:40:00,
2013-03-16 01:44:00,50.9,42.9,30.00,NW,315,0.0,0.0,74,0.00,,---,0.00,VWS V14.00,2013-03-16 05:44:00,
2013-03-16 01:50:00,50.7,42.7,30.00,NW,315,0.0,0.0,74,0.00,,---,0.00,VWS V14.00,2013-03-16 05:50:00,
2013-03-16 01:55:00,50.7,42.7,30.00,NW,315,0.0,0.0,74,0.00,,---,0.00,VWS V14.00,2013-03-16 05:55:00,
2013-03-16 02:00:00,50.5,42.5,30.00,NW,315,0.0,0.0,74,0.00,,---,0.00,VWS V14.00,2013-03-16 06:00:00,
2013-03-16 02:05:00,50.5,42.5,29.99,NW,315,0.0,0.0,74,0.00,,---,0.00,VWS V14.00,2013-03-16 06:05:00,
2013-03-16 02:10:00,50.5,42.9,29.99,NW,315,0.0,0.0,75,0.00,,---,0.00,VWS V14.00,2013-03-16 06:10:00,
2013-03-16 02:15:00,50.5,42.9,30.00,NW,315,0.0,0.0,75,0.00,,---,0.00,VWS V14.00,2013-03-16 06:15:00,
2013-03-16 02:20:00,50.3,42.7,30.00,NW,315,0.0,0.0,75,0.00,,---,0.00,VWS V14.00,2013-03-16 06:20:00,
2013-03-16 02:25:00,50.3,42.7,30.00,NW,315,0.0,0.0,75,0.00,,---,0.00,VWS V14.00,2013-03-16 06:25:00,
2013-03-16 02:30:00,50.1,42.5,29.99,NW,315,0.0,0.0,75,0.00,,---,0.00,VWS V14.00,2013-03-16 06:30:00,
2013-03-16 02:34:00,50.1,42.8,29.99,NW,315,0.0,0.0,76,0.00,,---,0.00,VWS V14.00,2013-03-16 06:34:00,
2013-03-16 02:39:00,50.1,42.8,29.99,NW,315,0.0,0.0,76,0.00,,---,0.00,VWS V14.00,2013-03-16 06:39:00,
2013-03-16 02:44:00,50.1,42.8,29.99,NW,315,0.0,0.0,76,0.00,,---,0.00,VWS V14.00,2013-03-16 06:44:00,
2013-03-16 02:49:00,50.1,42.8,29.99,NW,315,0.0,0.0,76,0.00,,---,0.00,VWS V14.00,2013-03-16 06:49:00,
2013-03-16 02:54:00,50.1,42.8,29.99,NW,315,0.0,0.0,76,0.00,,---,0.00,VWS V14.00,2013-03-16 06:54:00,
2013-03-16 02:59:00,50.0,42.7,29.99,NW,315,0.0,0.0,76,0.00,,---,0.00,VWS V14.00,2013-03-16 06:59:00,
2013-03-16 03:04:00,49.8,42.5,29.99,NW,315,0.0,0.0,76,0.00,,---,0.00,VWS V14.00,2013-03-16 07:04:00,
2013-03-16 03:09:00,49.8,42.5,29.99,NW,315,0.0,0.0,76,0.00,,---,0.00,VWS V14.00,2013-03-16 07:09:00,
2013-03-16 03:14:00,49.8,42.5,29.98,NW,315,0.0,0.0,76,0.00,,---,0.00,VWS V14.00,2013-03-16 07:14:00,
2013-03-16 03:19:00,49.8,42.5,29.99,NW,315,0.0,0.0,76,0.00,,---,0.00,VWS V14.00,2013-03-16 07:19:00,
2013-03-16 03:24:00,49.6,42.7,29.98,North,0,0.0,0.0,77,0.00,,---,0.00,VWS V14.00,2013-03-16 07:24:00,
2013-03-16 03:29:00,49.6,42.7,29.98,NW,315,0.0,0.0,77,0.00,,---,0.00,VWS V14.00,2013-03-16 07:29:00,
2013-03-16 03:34:00,49.6,42.7,29.98,NW,315,0.0,0.0,77,0.00,,---,0.00,VWS V14.00,2013-03-16 07:34:00,
2013-03-16 03:39:00,49.2,42.3,29.98,NW,315,0.0,0.0,77,0.00,,---,0.00,VWS V14.00,2013-03-16 07:39:00,
2013-03-16 03:44:00,49.2,42.3,29.98,NW,315,0.0,0.0,77,0.00,,---,0.00,VWS V14.00,2013-03-16 07:44:00,
2013-03-16 03:49:00,49.2,42.3,29.98,NW,315,0.0,0.0,77,0.00,,---,0.00,VWS V14.00,2013-03-16 07:49:00,
2013-03-16 03:54:00,49.1,42.2,29.98,NW,315,0.0,0.0,77,0.00,,---,0.00,VWS V14.00,2013-03-16 07:54:00,
2013-03-16 03:59:00,49.1,42.2,29.98,NW,315,0.0,0.0,77,0.00,,---,0.00,VWS V14.00,2013-03-16 07:59:00,
2013-03-16 04:04:00,49.1,42.5,29.98,NW,315,0.0,0.0,78,0.00,,---,0.00,VWS V14.00,2013-03-16 08:04:00,
2013-03-16 04:09:00,49.1,42.5,29.97,NW,315,0.0,0.0,78,0.00,,---,0.00,VWS V14.00,2013-03-16 08:09:00,
2013-03-16 04:14:00,49.1,42.5,29.98,NW,315,0.0,0.0,78,0.00,,---,0.00,VWS V14.00,2013-03-16 08:14:00,
2013-03-16 04:19:00,49.2,42.6,29.97,NW,315,0.0,0.0,78,0.00,,---,0.00,VWS V14.00,2013-03-16 08:19:00,
2013-03-16 04:24:00,49.2,42.6,29.97,NW,315,0.0,0.0,78,0.00,,---,0.00,VWS V14.00,2013-03-16 08:24:00,
2013-03-16 04:29:00,49.2,42.6,29.97,NW,315,0.0,0.0,78,0.00,,---,0.00,VWS V14.00,2013-03-16 08:29:00,
2013-03-16 04:34:00,49.1,42.5,29.97,NW,315,0.0,0.0,78,0.00,,---,0.00,VWS V14.00,2013-03-16 08:34:00,
2013-03-16 04:39:00,49.1,42.5,29.97,NW,315,0.0,0.0,78,0.00,,---,0.00,VWS V14.00,2013-03-16 08:39:00,
2013-03-16 04:44:00,49.1,42.5,29.96,NW,315,0.0,0.0,78,0.00,,---,0.00,VWS V14.00,2013-03-16 08:44:00,
2013-03-16 04:49:00,49.1,42.5,29.97,NW,315,0.0,0.0,78,0.00,,---,0.00,VWS V14.00,2013-03-16 08:49:00,
2013-03-16 04:54:00,49.1,42.5,29.97,NW,315,0.0,0.0,78,0.00,,---,0.00,VWS V14.00,2013-03-16 08:54:00,
2013-03-16 04:59:00,48.9,42.3,29.96,NW,315,0.0,0.0,78,0.00,,---,0.00,VWS V14.00,2013-03-16 08:59:00,
2013-03-16 05:04:00,48.9,42.3,29.96,NW,315,0.0,0.0,78,0.00,,---,0.00,VWS V14.00,2013-03-16 09:04:00,
2013-03-16 05:09:00,48.9,42.3,29.96,NW,315,0.0,0.0,78,0.00,,---,0.00,VWS V14.00,2013-03-16 09:09:00,
2013-03-16 05:14:00,48.9,42.3,29.96,NW,315,0.0,0.0,78,0.00,,---,0.00,VWS V14.00,2013-03-16 09:14:00,
2013-03-16 05:19:00,48.9,42.7,29.96,NW,315,0.0,0.0,79,0.00,,---,0.00,VWS V14.00,2013-03-16 09:19:00,
2013-03-16 05:24:00,48.7,42.5,29.97,NW,315,0.0,0.0,79,0.00,,---,0.00,VWS V14.00,2013-03-16 09:24:00,
2013-03-16 05:29:00,48.7,42.5,29.97,NW,315,0.0,0.0,79,0.00,,---,0.00,VWS V14.00,2013-03-16 09:29:00,
2013-03-16 05:34:00,48.7,42.5,29.97,NW,315,0.0,0.0,79,0.00,,---,0.00,VWS V14.00,2013-03-16 09:34:00,
2013-03-16 05:39:00,48.7,42.5,29.97,NW,315,0.0,0.0,79,0.00,,---,0.00,VWS V14.00,2013-03-16 09:39:00,
2013-03-16 05:44:00,48.7,42.5,29.97,NW,315,0.0,0.0,79,0.00,,---,0.00,VWS V14.00,2013-03-16 09:44:00,
2013-03-16 05:49:00,48.7,42.5,29.96,NW,315,0.0,0.0,79,0.00,,---,0.00,VWS V14.00,2013-03-16 09:49:00,
2013-03-16 05:54:00,48.7,42.5,29.97,NW,315,0.0,0.0,79,0.00,,---,0.00,VWS V14.00,2013-03-16 09:54:00,
2013-03-16 05:59:00,48.7,42.5,29.97,NW,315,0.0,0.0,79,0.00,,---,0.00,VWS V14.00,2013-03-16 09:59:00,
2013-03-16 06:04:00,48.7,42.5,29.97,NW,315,0.0,0.0,79,0.00,,---,0.00,VWS V14.00,2013-03-16 10:04:00,
2013-03-16 06:09:00,48.7,42.5,29.97,NW,315,0.0,0.0,79,0.00,,---,0.00,VWS V14.00,2013-03-16 10:09:00,
2013-03-16 06:14:00,48.7,42.5,29.97,NW,315,0.0,0.0,79,0.00,,---,0.00,VWS V14.00,2013-03-16 10:14:00,
2013-03-16 06:19:00,48.5,42.6,29.98,NW,315,0.0,0.0,80,0.00,,---,0.00,VWS V14.00,2013-03-16 10:19:00,
2013-03-16 06:24:00,48.7,42.8,29.97,NW,315,0.0,0.0,80,0.00,,---,0.00,VWS V14.00,2013-03-16 10:24:00,
2013-03-16 06:29:00,48.5,42.6,29.97,NW,315,0.0,0.0,80,0.00,,---,0.00,VWS V14.00,2013-03-16 10:29:00,
2013-03-16 06:34:00,48.7,42.8,29.98,NW,315,0.0,0.0,80,0.00,,---,0.00,VWS V14.00,2013-03-16 10:34:00,
2013-03-16 06:39:00,48.7,42.8,29.98,NW,315,0.0,0.0,80,0.00,,---,0.00,VWS V14.00,2013-03-16 10:39:00,
2013-03-16 06:44:00,48.5,42.6,29.98,NW,315,0.0,0.0,80,0.00,,---,0.00,VWS V14.00,2013-03-16 10:44:00,
2013-03-16 06:49:00,48.5,42.6,29.98,NW,315,0.0,0.0,80,0.00,,---,0.00,VWS V14.00,2013-03-16 10:49:00,
2013-03-16 06:54:00,48.3,42.4,29.98,NW,315,0.0,0.0,80,0.00,,---,0.00,VWS V14.00,2013-03-16 10:54:00,
2013-03-16 06:59:00,48.3,42.4,29.98,NW,315,0.0,0.0,80,0.00,,---,0.00,VWS V14.00,2013-03-16 10:59:00,
2013-03-16 07:04:00,48.3,42.4,29.98,NW,315,0.0,0.0,80,0.00,,---,0.00,VWS V14.00,2013-03-16 11:04:00,
2013-03-16 07:09:00,48.3,42.8,29.98,NW,315,0.0,0.0,81,0.00,,---,0.00,VWS V14.00,2013-03-16 11:09:00,
2013-03-16 07:14:00,48.3,42.8,29.98,NW,315,0.0,0.0,81,0.00,,---,0.00,VWS V14.00,2013-03-16 11:14:00,
2013-03-16 07:19:00,48.3,42.8,29.98,NW,315,0.0,0.0,81,0.00,,---,0.00,VWS V14.00,2013-03-16 11:19:00,
2013-03-16 07:24:00,48.3,42.8,29.98,NW,315,0.0,0.0,81,0.00,,---,0.00,VWS V14.00,2013-03-16 11:24:00,
2013-03-16 07:29:00,48.3,42.8,29.99,NW,315,0.0,0.0,81,0.00,,---,0.00,VWS V14.00,2013-03-16 11:29:00,
2013-03-16 07:34:00,48.3,42.8,29.99,NW,315,0.0,0.0,81,0.00,,---,0.00,VWS V14.00,2013-03-16 11:34:00,
2013-03-16 07:39:00,48.2,42.7,29.99,NW,315,0.0,0.0,81,0.00,,---,0.00,VWS V14.00,2013-03-16 11:39:00,
2013-03-16 07:44:00,48.2,42.7,29.99,NW,315,0.0,0.0,81,0.00,,---,0.00,VWS V14.00,2013-03-16 11:44:00,
2013-03-16 07:49:00,48.2,42.7,29.99,NW,315,0.0,0.0,81,0.00,,---,0.00,VWS V14.00,2013-03-16 11:49:00,
2013-03-16 07:54:00,48.3,42.8,29.99,NW,315,0.0,0.0,81,0.00,,---,0.00,VWS V14.00,2013-03-16 11:54:00,
2013-03-16 07:59:00,48.3,42.8,29.99,NW,315,0.0,0.0,81,0.00,,---,0.00,VWS V14.00,2013-03-16 11:59:00,
2013-03-16 08:04:00,48.3,42.8,29.98,NW,315,0.0,0.0,81,0.00,,---,0.00,VWS V14.00,2013-03-16 12:04:00,
2013-03-16 08:09:00,48.5,43.0,29.99,NW,315,0.0,0.0,81,0.00,,---,0.00,VWS V14.00,2013-03-16 12:09:00,
2013-03-16 08:14:00,48.7,43.1,29.99,NW,315,0.0,0.0,81,0.00,,---,0.00,VWS V14.00,2013-03-16 12:14:00,
2013-03-16 08:19:00,48.7,43.1,29.99,NW,315,0.0,0.0,81,0.00,,---,0.00,VWS V14.00,2013-03-16 12:19:00,
2013-03-16 08:24:00,49.2,43.6,30.00,NW,315,0.0,0.0,81,0.00,,---,0.00,VWS V14.00,2013-03-16 12:24:00,
2013-03-16 08:28:00,49.6,44.3,30.00,NW,315,0.0,0.0,82,0.00,,---,0.00,VWS V14.00,2013-03-16 12:28:00,
2013-03-16 08:33:00,49.8,44.5,30.00,NW,315,0.0,0.0,82,0.00,,---,0.00,VWS V14.00,2013-03-16 12:33:00,
2013-03-16 08:38:00,50.5,45.2,30.00,NW,315,0.0,0.0,82,0.00,,---,0.00,VWS V14.00,2013-03-16 12:38:00,
2013-03-16 08:43:00,50.9,45.6,30.00,NW,315,0.0,0.0,82,0.00,,---,0.00,VWS V14.00,2013-03-16 12:43:00,
2013-03-16 08:48:00,51.6,46.3,30.00,NW,315,0.0,0.0,82,0.00,,---,0.00,VWS V14.00,2013-03-16 12:48:00,
2013-03-16 08:53:00,52.5,47.2,30.00,SSW,202,0.0,0.0,82,0.00,,---,0.00,VWS V14.00,2013-03-16 12:53:00,
2013-03-16 08:58:00,53.4,48.0,30.00,SSW,202,0.0,0.0,82,0.00,,---,0.00,VWS V14.00,2013-03-16 12:58:00,
2013-03-16 09:03:00,54.1,48.7,30.00,SSW,202,0.0,0.0,82,0.00,,---,0.00,VWS V14.00,2013-03-16 13:03:00,
2013-03-16 09:08:00,55.0,49.3,30.01,South,180,0.0,0.0,81,0.00,,---,0.00,VWS V14.00,2013-03-16 13:08:00,
2013-03-16 09:13:00,55.7,50.0,30.00,SW,225,0.0,0.0,81,0.00,,---,0.00,VWS V14.00,2013-03-16 13:13:00,
2013-03-16 09:18:00,56.6,50.5,30.00,South,180,0.0,0.0,80,0.00,,---,0.00,VWS V14.00,2013-03-16 13:18:00,
2013-03-16 09:23:00,57.3,51.2,30.00,SE,135,0.0,0.0,80,0.00,,---,0.00,VWS V14.00,2013-03-16 13:23:00,
2013-03-16 09:28:00,57.9,51.4,30.00,SSE,158,0.0,0.0,79,0.00,,---,0.00,VWS V14.00,2013-03-16 13:28:00,
2013-03-16 09:33:00,58.8,51.6,30.01,SSE,158,0.0,0.0,77,0.00,,---,0.00,VWS V14.00,2013-03-16 13:33:00,
2013-03-16 09:38:00,59.1,51.5,30.01,SE,135,0.0,0.0,76,0.00,,---,0.00,VWS V14.00,2013-03-16 13:38:00,
2013-03-16 09:43:00,59.9,51.6,30.01,SSE,158,0.0,0.0,74,0.00,,---,0.00,VWS V14.00,2013-03-16 13:43:00,
2013-03-16 09:48:00,60.6,51.9,30.01,SSE,158,0.0,0.0,73,0.00,,---,0.00,VWS V14.00,2013-03-16 13:48:00,
2013-03-16 09:53:00,61.3,51.8,30.01,SSE,158,0.0,0.0,71,0.00,,---,0.00,VWS V14.00,2013-03-16 13:53:00,
2013-03-16 09:58:00,62.0,51.3,30.01,SSE,158,1.7,1.7,68,0.00,,---,0.00,VWS V14.00,2013-03-16 13:58:00,
2013-03-16 10:03:00,62.7,51.2,30.01,SE,135,0.0,0.0,66,0.00,,---,0.00,VWS V14.00,2013-03-16 14:03:00,
2013-03-16 10:08:00,63.5,51.1,30.01,South,180,0.0,0.0,64,0.00,,---,0.00,VWS V14.00,2013-03-16 14:08:00,
2013-03-16 10:13:00,64.0,50.7,30.00,SSE,158,0.0,0.0,62,0.00,,---,0.00,VWS V14.00,2013-03-16 14:13:00,
2013-03-16 10:18:00,64.7,50.1,30.00,SE,135,0.0,0.0,59,0.00,,---,0.00,VWS V14.00,2013-03-16 14:18:00,
2013-03-16 10:23:00,65.4,50.2,30.00,SSW,202,2.9,2.9,58,0.00,,---,0.00,VWS V14.00,2013-03-16 14:23:00,
2013-03-16 10:28:00,66.0,49.9,30.00,ESE,112,0.0,0.0,56,0.00,,---,0.00,VWS V14.00,2013-03-16 14:28:00,
2013-03-16 10:33:00,66.9,50.2,30.00,SE,135,0.4,0.4,55,0.00,,---,0.00,VWS V14.00,2013-03-16 14:33:00,
2013-03-16 10:38:00,67.2,50.0,30.00,SSE,158,1.3,1.3,54,0.00,,---,0.00,VWS V14.00,2013-03-16 14:38:00,
2013-03-16 10:43:00,68.0,49.7,30.00,SE,135,1.1,1.1,52,0.00,,---,0.00,VWS V14.00,2013-03-16 14:43:00,
2013-03-16 10:48:00,68.7,49.9,30.00,SSE,158,0.0,0.0,51,0.00,,---,0.00,VWS V14.00,2013-03-16 14:48:00,
2013-03-16 10:53:00,69.2,49.8,30.00,SE,135,0.0,0.0,50,0.00,,---,0.00,VWS V14.00,2013-03-16 14:53:00,
2013-03-16 10:58:00,69.6,49.6,30.00,SSE,158,2.0,2.0,49,0.00,,---,0.00,VWS V14.00,2013-03-16 14:58:00,
2013-03-16 11:03:00,70.3,49.7,30.00,SSE,158,2.4,2.4,48,0.00,,---,0.00,VWS V14.00,2013-03-16 15:03:00,
2013-03-16 11:08:00,70.7,50.1,30.01,SW,225,3.8,3.8,48,0.00,,---,0.00,VWS V14.00,2013-03-16 15:08:00,
2013-03-16 11:13:00,71.2,50.0,30.00,SE,135,2.4,2.4,47,0.00,,---,0.00,VWS V14.00,2013-03-16 15:13:00,
2013-03-16 11:18:00,71.7,49.8,30.00,SW,225,4.2,4.2,46,0.00,,---,0.00,VWS V14.00,2013-03-16 15:18:00,
2013-03-16 11:23:00,72.3,50.4,30.00,SSW,202,5.8,5.8,46,0.00,,---,0.00,VWS V14.00,2013-03-16 15:23:00,
2013-03-16 11:28:00,72.5,50.6,30.00,SE,135,2.9,2.9,46,0.00,,---,0.00,VWS V14.00,2013-03-16 15:28:00,
2013-03-16 11:33:00,73.0,51.0,30.00,WSW,248,2.0,2.0,46,0.00,,---,0.00,VWS V14.00,2013-03-16 15:33:00,
2013-03-16 11:38:00,73.4,51.4,30.00,SSE,158,2.2,2.2,46,0.00,,---,0.00,VWS V14.00,2013-03-16 15:38:00,
2013-03-16 11:43:00,74.1,52.0,30.00,WSW,248,1.3,1.3,46,0.00,,---,0.00,VWS V14.00,2013-03-16 15:43:00,
2013-03-16 11:48:00,74.4,52.3,30.00,SE,135,2.2,2.2,46,0.00,,---,0.00,VWS V14.00,2013-03-16 15:48:00,
2013-03-16 11:53:00,75.0,52.8,30.00,West,270,4.0,4.0,46,0.00,,---,0.00,VWS V14.00,2013-03-16 15:53:00,
2013-03-16 11:58:00,74.8,52.7,29.99,SW,225,7.3,7.3,46,0.00,,---,0.00,VWS V14.00,2013-03-16 15:58:00,
2013-03-16 12:03:00,75.0,52.8,29.99,SW,225,9.1,9.1,46,0.00,,---,0.00,VWS V14.00,2013-03-16 16:03:00,
2013-03-16 12:08:00,75.3,53.1,29.99,WNW,292,1.7,1.7,46,0.00,,---,0.00,VWS V14.00,2013-03-16 16:08:00,
2013-03-16 12:13:00,75.7,53.5,29.99,SSW,202,7.1,7.1,46,0.00,,---,0.00,VWS V14.00,2013-03-16 16:13:00,
2013-03-16 12:18:00,76.2,53.3,29.99,South,180,4.4,4.4,45,0.00,,---,0.00,VWS V14.00,2013-03-16 16:18:00,
2013-03-16 12:23:00,76.6,53.1,30.00,WSW,248,2.4,2.4,44,0.00,,---,0.00,VWS V14.00,2013-03-16 16:23:00,
2013-03-16 12:28:00,76.2,52.1,29.99,SSW,202,6.9,6.9,43,0.00,,---,0.00,VWS V14.00,2013-03-16 16:28:00,
2013-03-16 12:33:00,76.2,51.5,29.98,SW,225,0.8,0.8,42,0.00,,---,0.00,VWS V14.00,2013-03-16 16:33:00,
2013-03-16 12:38:00,76.4,51.6,29.98,South,180,0.0,0.0,42,0.00,,---,0.00,VWS V14.00,2013-03-16 16:38:00,
2013-03-16 12:43:00,77.0,52.2,29.98,WSW,248,1.7,1.7,42,0.00,,---,0.00,VWS V14.00,2013-03-16 16:43:00,
2013-03-16 12:48:00,77.1,51.6,29.98,SW,225,2.2,2.2,41,0.00,,---,0.00,VWS V14.00,2013-03-16 16:48:00,
2013-03-16 12:53:00,77.3,51.8,29.98,South,180,1.5,1.5,41,0.00,,---,0.00,VWS V14.00,2013-03-16 16:53:00,
2013-03-16 12:58:00,77.5,52.0,29.98,WSW,248,5.8,5.8,41,0.00,,---,0.00,VWS V14.00,2013-03-16 16:58:00,
2013-03-16 13:03:00,78.0,52.4,29.98,WSW,248,4.9,4.9,41,0.00,,---,0.00,VWS V14.00,2013-03-16 17:03:00,
2013-03-16 13:08:00,78.4,52.1,29.98,SW,225,4.4,4.4,40,0.00,,---,0.00,VWS V14.00,2013-03-16 17:08:00,
2013-03-16 13:13:00,78.6,52.3,29.97,SW,225,7.3,7.3,40,0.00,,---,0.00,VWS V14.00,2013-03-16 17:13:00,
2013-03-16 13:18:00,78.9,51.9,29.97,WNW,292,2.6,2.6,39,0.00,,---,0.00,VWS V14.00,2013-03-16 17:18:00,
2013-03-16 13:23:00,78.9,51.9,29.97,SSW,202,7.1,7.1,39,0.00,,---,0.00,VWS V14.00,2013-03-16 17:23:00,
2013-03-16 13:28:00,79.1,52.0,29.97,WSW,248,8.0,8.0,39,0.00,,---,0.00,VWS V14.00,2013-03-16 17:28:00,
2013-03-16 13:33:00,79.1,52.0,29.96,WNW,292,2.2,2.2,39,0.00,,---,0.00,VWS V14.00,2013-03-16 17:33:00,
2013-03-16 13:38:00,78.9,51.9,29.96,SE,135,2.0,2.0,39,0.00,,---,0.00,VWS V14.00,2013-03-16 17:38:00,
2013-03-16 13:43:00,78.9,51.9,29.96,South,180,0.6,0.6,39,0.00,,---,0.00,VWS V14.00,2013-03-16 17:43:00,
2013-03-16 13:48:00,79.1,52.7,29.96,SSE,158,0.0,0.0,40,0.00,,---,0.00,VWS V14.00,2013-03-16 17:48:00,
2013-03-16 13:53:00,79.7,52.6,29.95,WSW,248,0.0,0.0,39,0.00,,---,0.00,VWS V14.00,2013-03-16 17:53:00,
2013-03-16 13:58:00,79.8,53.4,29.96,SSW,202,4.0,4.0,40,0.00,,---,0.00,VWS V14.00,2013-03-16 17:58:00,
2013-03-16 14:03:00,80.4,53.9,29.95,SW,225,5.3,5.3,40,0.00,,---,0.00,VWS V14.00,2013-03-16 18:03:00,
2013-03-16 14:08:00,80.4,53.2,29.95,SSW,202,4.0,4.0,39,0.00,,---,0.00,VWS V14.00,2013-03-16 18:08:00,
2013-03-16 14:13:00,80.9,53.7,29.94,SSE,158,1.1,1.1,39,0.00,,---,0.00,VWS V14.00,2013-03-16 18:13:00,
2013-03-16 14:18:00,81.1,53.8,29.94,SSW,202,3.3,3.3,39,0.00,,---,0.00,VWS V14.00,2013-03-16 18:18:00,
2013-03-16 14:23:00,81.5,54.2,29.94,SSW,202,4.6,4.6,39,0.00,,---,0.00,VWS V14.00,2013-03-16 18:23:00,
2013-03-16 14:28:00,81.6,54.3,29.95,SSW,202,2.9,2.9,39,0.00,,---,0.00,VWS V14.00,2013-03-16 18:28:00,
2013-03-16 14:33:00,81.8,53.7,29.94,SW,225,3.3,3.3,38,0.00,,---,0.00,VWS V14.00,2013-03-16 18:33:00,
2013-03-16 14:38:00,81.5,52.7,29.93,WSW,248,3.5,3.5,37,0.00,,---,0.00,VWS V14.00,2013-03-16 18:38:00,
2013-03-16 14:43:00,81.3,51.1,29.93,NW,315,5.8,5.8,35,0.00,,---,0.00,VWS V14.00,2013-03-16 18:43:00,
2013-03-16 14:48:00,80.9,50.7,29.93,WNW,292,3.1,3.1,35,0.00,,---,0.00,VWS V14.00,2013-03-16 18:48:00,
2013-03-16 14:53:00,80.4,51.0,29.93,West,270,1.5,1.5,36,0.00,,---,0.00,VWS V14.00,2013-03-16 18:53:00,
2013-03-16 14:58:00,80.2,51.6,29.93,WNW,292,1.7,1.7,37,0.00,,---,0.00,VWS V14.00,2013-03-16 18:58:00,
2013-03-16 15:03:00,80.0,50.7,29.93,North,0,0.0,0.0,36,0.00,,---,0.00,VWS V14.00,2013-03-16 19:03:00,
2013-03-16 15:08:00,79.5,50.2,29.93,WNW,292,4.9,4.9,36,0.00,,---,0.00,VWS V14.00,2013-03-16 19:08:00,
2013-03-16 15:13:00,78.9,49.7,29.92,East,90,0.0,0.0,36,0.00,,---,0.00,VWS V14.00,2013-03-16 19:13:00,
2013-03-16 15:18:00,78.6,49.4,29.93,WSW,248,3.5,3.5,36,0.00,,---,0.00,VWS V14.00,2013-03-16 19:18:00,
2013-03-16 15:23:00,78.2,49.1,29.92,NNW,338,6.9,6.9,36,0.00,,---,0.00,VWS V14.00,2013-03-16 19:23:00,
2013-03-16 15:28:00,77.9,49.6,29.92,SW,225,3.8,3.8,37,0.00,,---,0.00,VWS V14.00,2013-03-16 19:28:00,
2013-03-16 15:33:00,78.0,50.4,29.92,West,270,2.6,2.6,38,0.00,,---,0.00,VWS V14.00,2013-03-16 19:33:00,
2013-03-16 15:38:00,78.0,50.4,29.92,WNW,292,4.0,4.0,38,0.00,,---,0.00,VWS V14.00,2013-03-16 19:38:00,
2013-03-16 15:43:00,77.7,50.1,29.92,WSW,248,1.1,1.1,38,0.00,,---,0.00,VWS V14.00,2013-03-16 19:43:00,
2013-03-16 15:48:00,77.9,50.3,29.92,SW,225,4.4,4.4,38,0.00,,---,0.00,VWS V14.00,2013-03-16 19:48:00,
2013-03-16 15:53:00,77.7,50.1,29.92,West,270,1.1,1.1,38,0.00,,---,0.00,VWS V14.00,2013-03-16 19:53:00,
2013-03-16 15:58:00,77.5,50.6,29.92,WNW,292,5.3,5.3,39,0.00,,---,0.00,VWS V14.00,2013-03-16 19:58:00,
2013-03-16 16:03:00,77.1,50.3,29.92,WSW,248,0.4,0.4,39,0.00,,---,0.00,VWS V14.00,2013-03-16 20:03:00,
2013-03-16 16:08:00,76.8,50.0,29.92,NW,315,2.6,2.6,39,0.00,,---,0.00,VWS V14.00,2013-03-16 20:08:00,
2013-03-16 16:13:00,76.6,49.1,29.92,West,270,1.1,1.1,38,0.00,,---,0.00,VWS V14.00,2013-03-16 20:13:00,
2013-03-16 16:18:00,76.1,49.4,29.92,West,270,2.0,2.0,39,0.00,,---,0.00,VWS V14.00,2013-03-16 20:18:00,
2013-03-16 16:23:00,75.9,49.9,29.92,West,270,0.6,0.6,40,0.00,,---,0.00,VWS V14.00,2013-03-16 20:23:00,
2013-03-16 16:28:00,75.7,49.7,29.91,West,270,1.1,1.1,40,0.00,,---,0.00,VWS V14.00,2013-03-16 20:28:00,
2013-03-16 16:33:00,75.3,50.0,29.91,SW,225,6.4,6.4,41,0.00,,---,0.00,VWS V14.00,2013-03-16 20:33:00,
2013-03-16 16:38:00,75.0,50.4,29.91,West,270,4.0,4.0,42,0.00,,---,0.00,VWS V14.00,2013-03-16 20:38:00,
2013-03-16 16:43:00,74.3,50.4,29.91,NW,315,4.6,4.6,43,0.00,,---,0.00,VWS V14.00,2013-03-16 20:43:00,
2013-03-16 16:48:00,73.9,50.6,29.91,WSW,248,1.7,1.7,44,0.00,,---,0.00,VWS V14.00,2013-03-16 20:48:00,
2013-03-16 16:53:00,73.7,50.5,29.90,NW,315,2.9,2.9,44,0.00,,---,0.00,VWS V14.00,2013-03-16 20:53:00,
2013-03-16 16:58:00,73.5,50.9,29.91,SW,225,7.6,7.6,45,0.00,,---,0.00,VWS V14.00,2013-03-16 20:58:00,
2013-03-16 17:03:00,73.5,50.9,29.90,WSW,248,1.7,1.7,45,0.00,,---,0.00,VWS V14.00,2013-03-16 21:03:00,
2013-03-16 17:08:00,73.2,50.6,29.90,NW,315,2.2,2.2,45,0.00,,---,0.00,VWS V14.00,2013-03-16 21:08:00,
2013-03-16 17:13:00,72.5,50.6,29.90,South,180,1.7,1.7,46,0.00,,---,0.00,VWS V14.00,2013-03-16 21:13:00,
2013-03-16 17:18:00,72.3,51.0,29.91,NW,315,3.1,3.1,47,0.00,,---,0.00,VWS V14.00,2013-03-16 21:18:00,
2013-03-16 17:23:00,71.9,51.7,29.90,WNW,292,1.7,1.7,49,0.00,,---,0.00,VWS V14.00,2013-03-16 21:23:00,
2013-03-16 17:28:00,71.4,51.3,29.90,WSW,248,2.9,2.9,49,0.00,,---,0.00,VWS V14.00,2013-03-16 21:28:00,
2013-03-16 17:33:00,71.2,51.6,29.91,West,270,3.1,3.1,50,0.00,,---,0.00,VWS V14.00,2013-03-16 21:33:00,
2013-03-16 17:38:00,71.2,51.6,29.90,West,270,0.0,0.0,50,0.00,,---,0.00,VWS V14.00,2013-03-16 21:38:00,
2013-03-16 17:43:00,70.8,51.8,29.90,WNW,292,0.0,0.0,51,0.00,,---,0.00,VWS V14.00,2013-03-16 21:43:00,
2013-03-16 17:48:00,70.8,52.3,29.90,West,270,4.0,4.0,52,0.00,,---,0.00,VWS V14.00,2013-03-16 21:48:00,
2013-03-16 17:53:00,70.5,53.1,29.91,WNW,292,2.2,2.2,54,0.00,,---,0.00,VWS V14.00,2013-03-16 21:53:00,
2013-03-16 17:58:00,70.3,53.9,29.91,West,270,0.8,0.8,56,0.00,,---,0.00,VWS V14.00,2013-03-16 21:58:00,
2013-03-16 18:03:00,70.1,54.7,29.91,WSW,248,1.5,1.5,58,0.00,,---,0.00,VWS V14.00,2013-03-16 22:03:00,
2013-03-16 18:08:00,69.9,54.0,29.91,WSW,248,0.8,0.8,57,0.00,,---,0.00,VWS V14.00,2013-03-16 22:08:00,
2013-03-16 18:13:00,69.9,54.0,29.90,West,270,1.1,1.1,57,0.00,,---,0.00,VWS V14.00,2013-03-16 22:13:00,
2013-03-16 18:18:00,70.1,54.7,29.90,NW,315,2.6,2.6,58,0.00,,---,0.00,VWS V14.00,2013-03-16 22:18:00,
2013-03-16 18:23:00,69.8,53.9,29.91,West,270,0.0,0.0,57,0.00,,---,0.00,VWS V14.00,2013-03-16 22:23:00,
2013-03-16 18:28:00,69.6,54.2,29.91,WSW,248,0.0,0.0,58,0.00,,---,0.00,VWS V14.00,2013-03-16 22:28:00,
2013-03-16 18:33:00,69.6,54.7,29.91,NNW,338,1.3,1.3,59,0.00,,---,0.00,VWS V14.00,2013-03-16 22:33:00,
2013-03-16 18:38:00,69.9,55.4,29.91,West,270,3.1,3.1,60,0.00,,---,0.00,VWS V14.00,2013-03-16 22:38:00,
2013-03-16 18:43:00,69.6,55.1,29.91,SSW,202,4.0,4.0,60,0.00,,---,0.00,VWS V14.00,2013-03-16 22:43:00,
2013-03-16 18:48:00,69.8,55.3,29.91,WNW,292,2.2,2.2,60,0.00,,---,0.00,VWS V14.00,2013-03-16 22:48:00,
2013-03-16 18:53:00,69.8,55.3,29.91,NW,315,3.3,3.3,60,0.00,,---,0.00,VWS V14.00,2013-03-16 22:53:00,
2013-03-16 18:58:00,69.8,55.8,29.91,West,270,0.0,0.0,61,0.00,,---,0.00,VWS V14.00,2013-03-16 22:58:00,
2013-03-16 19:03:00,69.6,55.6,29.91,West,270,0.0,0.0,61,0.00,,---,0.00,VWS V14.00,2013-03-16 23:03:00,
2013-03-16 19:08:00,69.6,55.6,29.91,West,270,0.0,0.0,61,0.00,,---,0.00,VWS V14.00,2013-03-16 23:08:00,
2013-03-16 19:13:00,69.4,55.4,29.92,WNW,292,2.2,2.2,61,0.00,,---,0.00,VWS V14.00,2013-03-16 23:13:00,
2013-03-16 19:18:00,69.0,55.5,29.91,SSW,202,3.5,3.5,62,0.00,,---,0.00,VWS V14.00,2013-03-16 23:18:00,
2013-03-16 19:23:00,68.7,55.2,29.91,WSW,248,0.0,0.0,62,0.00,,---,0.00,VWS V14.00,2013-03-16 23:23:00,
2013-03-16 19:28:00,68.3,55.2,29.91,West,270,0.0,0.0,63,0.00,,---,0.00,VWS V14.00,2013-03-16 23:28:00,
2013-03-16 19:33:00,67.8,55.2,29.91,WNW,292,0.0,0.0,64,0.00,,---,0.00,VWS V14.00,2013-03-16 23:33:00,
2013-03-16 19:38:00,67.6,55.0,29.91,West,270,0.0,0.0,64,0.00,,---,0.00,VWS V14.00,2013-03-16 23:38:00,
2013-03-16 19:43:00,67.1,54.5,29.92,WSW,248,0.0,0.0,64,0.00,,---,0.00,VWS V14.00,2013-03-16 23:43:00,
2013-03-16 19:48:00,66.7,54.6,29.91,West,270,0.0,0.0,65,0.00,,---,0.00,VWS V14.00,2013-03-16 23:48:00,
2013-03-16 19:53:00,66.3,54.6,29.92,NW,315,0.0,0.0,66,0.00,,---,0.00,VWS V14.00,2013-03-16 23:53:00,
2013-03-16 19:58:00,66.0,54.7,29.92,WNW,292,0.0,0.0,67,0.00,,---,0.00,VWS V14.00,2013-03-16 23:58:00,
2013-03-16 20:03:00,65.8,54.5,29.92,West,270,0.0,0.0,67,0.00,,---,0.00,VWS V14.00,2013-03-17 00:03:00,
2013-03-16 20:08:00,65.4,54.6,29.91,West,270,0.0,0.0,68,0.00,,---,0.00,VWS V14.00,2013-03-17 00:08:00,
2013-03-16 20:13:00,65.3,54.5,29.92,WSW,248,0.0,0.0,68,0.00,,---,0.00,VWS V14.00,2013-03-17 00:13:00,
2013-03-16 20:18:00,65.1,54.7,29.91,WSW,248,0.0,0.0,69,0.00,,---,0.00,VWS V14.00,2013-03-17 00:18:00,
2013-03-16 20:23:00,64.9,54.5,29.91,NW,315,0.0,0.0,69,0.00,,---,0.00,VWS V14.00,2013-03-17 00:23:00,
2013-03-16 20:28:00,64.7,54.7,29.92,WNW,292,0.0,0.0,70,0.00,,---,0.00,VWS V14.00,2013-03-17 00:28:00,
2013-03-16 20:33:00,64.5,54.5,29.91,WNW,292,0.0,0.0,70,0.00,,---,0.00,VWS V14.00,2013-03-17 00:33:00,
2013-03-16 20:38:00,64.4,54.4,29.92,WNW,292,0.0,0.0,70,0.00,,---,0.00,VWS V14.00,2013-03-17 00:38:00,
2013-03-16 20:43:00,64.2,54.2,29.91,SW,225,0.0,0.0,70,0.00,,---,0.00,VWS V14.00,2013-03-17 00:43:00,
2013-03-16 20:48:00,64.0,54.4,29.91,SW,225,0.0,0.0,71,0.00,,---,0.00,VWS V14.00,2013-03-17 00:48:00,
2013-03-16 20:53:00,63.6,54.0,29.91,SW,225,0.0,0.0,71,0.00,,---,0.00,VWS V14.00,2013-03-17 00:53:00,
2013-03-16 20:58:00,63.5,54.3,29.91,WSW,248,0.0,0.0,72,0.00,,---,0.00,VWS V14.00,2013-03-17 00:58:00,
2013-03-16 21:03:00,63.3,54.1,29.91,West,270,0.0,0.0,72,0.00,,---,0.00,VWS V14.00,2013-03-17 01:03:00,
2013-03-16 21:08:00,63.3,54.1,29.91,West,270,0.0,0.0,72,0.00,,---,0.00,VWS V14.00,2013-03-17 01:08:00,
2013-03-16 21:13:00,63.1,53.9,29.91,West,270,0.0,0.0,72,0.00,,---,0.00,VWS V14.00,2013-03-17 01:13:00,
2013-03-16 21:18:00,62.7,53.9,29.91,West,270,0.0,0.0,73,0.00,,---,0.00,VWS V14.00,2013-03-17 01:18:00,
2013-03-16 21:23:00,62.4,53.6,29.91,West,270,0.0,0.0,73,0.00,,---,0.00,VWS V14.00,2013-03-17 01:23:00,
2013-03-16 21:28:00,62.2,53.5,29.92,West,270,0.0,0.0,73,0.00,,---,0.00,VWS V14.00,2013-03-17 01:28:00,
2013-03-16 21:33:00,62.0,53.6,29.92,West,270,0.0,0.0,74,0.00,,---,0.00,VWS V14.00,2013-03-17 01:33:00,
2013-03-16 21:38:00,61.7,53.3,29.92,West,270,0.0,0.0,74,0.00,,---,0.00,VWS V14.00,2013-03-17 01:38:00,
2013-03-16 21:43:00,61.3,53.0,29.92,West,270,0.0,0.0,74,0.00,,---,0.00,VWS V14.00,2013-03-17 01:43:00,
2013-03-16 21:48:00,60.9,52.6,29.92,West,270,0.0,0.0,74,0.00,,---,0.00,VWS V14.00,2013-03-17 01:48:00,
2013-03-16 21:53:00,60.9,52.9,29.92,West,270,0.0,0.0,75,0.00,,---,0.00,VWS V14.00,2013-03-17 01:53:00,
2013-03-16 21:58:00,60.6,52.6,29.93,West,270,0.0,0.0,75,0.00,,---,0.00,VWS V14.00,2013-03-17 01:58:00,
2013-03-16 22:03:00,60.4,52.5,29.93,West,270,0.0,0.0,75,0.00,,---,0.00,VWS V14.00,2013-03-17 02:03:00,
2013-03-16 22:08:00,60.0,52.4,29.93,West,270,0.0,0.0,76,0.00,,---,0.00,VWS V14.00,2013-03-17 02:08:00,
2013-03-16 22:13:00,59.9,52.3,29.93,West,270,0.0,0.0,76,0.00,,---,0.00,VWS V14.00,2013-03-17 02:13:00,
2013-03-16 22:18:00,59.7,52.1,29.93,West,270,0.0,0.0,76,0.00,,---,0.00,VWS V14.00,2013-03-17 02:18:00,
2013-03-16 22:23:00,59.5,51.9,29.93,West,270,0.0,0.0,76,0.00,,---,0.00,VWS V14.00,2013-03-17 02:23:00,
2013-03-16 22:28:00,59.3,51.8,29.93,West,270,0.0,0.0,76,0.00,,---,0.00,VWS V14.00,2013-03-17 02:28:00,
2013-03-16 22:33:00,59.1,51.9,29.93,West,270,0.0,0.0,77,0.00,,---,0.00,VWS V14.00,2013-03-17 02:33:00,
2013-03-16 22:38:00,58.8,51.6,29.93,West,270,0.0,0.0,77,0.00,,---,0.00,VWS V14.00,2013-03-17 02:38:00,
2013-03-16 22:43:00,58.8,51.6,29.93,West,270,0.0,0.0,77,0.00,,---,0.00,VWS V14.00,2013-03-17 02:43:00,
2013-03-16 22:48:00,58.8,51.6,29.94,West,270,0.0,0.0,77,0.00,,---,0.00,VWS V14.00,2013-03-17 02:48:00,
2013-03-16 22:53:00,58.8,51.6,29.93,West,270,0.0,0.0,77,0.00,,---,0.00,VWS V14.00,2013-03-17 02:53:00,
2013-03-16 22:58:00,58.6,51.8,29.94,West,270,0.0,0.0,78,0.00,,---,0.00,VWS V14.00,2013-03-17 02:58:00,
2013-03-16 23:03:00,58.4,51.6,29.94,West,270,0.0,0.0,78,0.00,,---,0.00,VWS V14.00,2013-03-17 03:03:00,
2013-03-16 23:08:00,58.2,51.4,29.94,West,270,0.0,0.0,78,0.00,,---,0.00,VWS V14.00,2013-03-17 03:08:00,
2013-03-16 23:13:00,58.2,51.4,29.93,West,270,0.0,0.0,78,0.00,,---,0.00,VWS V14.00,2013-03-17 03:13:00,
2013-03-16 23:18:00,58.1,51.6,29.94,West,270,0.0,0.0,79,0.00,,---,0.00,VWS V14.00,2013-03-17 03:18:00,
2013-03-16 23:23:00,57.9,51.4,29.93,West,270,0.0,0.0,79,0.00,,---,0.00,VWS V14.00,2013-03-17 03:23:00,
2013-03-16 23:28:00,57.9,51.4,29.93,West,270,0.0,0.0,79,0.00,,---,0.00,VWS V14.00,2013-03-17 03:28:00,
2013-03-16 23:33:00,57.7,51.2,29.93,West,270,0.0,0.0,79,0.00,,---,0.00,VWS V14.00,2013-03-17 03:33:00,
2013-03-16 23:38:00,57.3,50.8,29.93,West,270,0.0,0.0,79,0.00,,---,0.00,VWS V14.00,2013-03-17 03:38:00,
2013-03-16 23:43:00,57.2,50.8,29.93,West,270,0.0,0.0,79,0.00,,---,0.00,VWS V14.00,2013-03-17 03:43:00,
2013-03-16 23:48:00,57.0,50.6,29.93,West,270,0.0,0.0,79,0.00,,---,0.00,VWS V14.00,2013-03-17 03:48:00,
2013-03-16 23:53:00,57.0,50.6,29.93,West,270,0.0,0.0,79,0.00,,---,0.00,VWS V14.00,2013-03-17 03:53:00,
2013-03-16 23:58:00,57.0,50.6,29.93,West,270,0.0,0.0,79,0.00,,---,0.00,VWS V14.00,2013-03-17 03:58:00,